Powrót do katalogu

SUPERVIEW NEO 3-02

AktywnyNaukaSSO
NORAD 63208·PAYLOAD·🇨🇳 China

Wystrzelony Mar 15, 2025 z Jiuquan Satellite Launch Center

Loading…

Następne Przeloty (najbliższe 24 godziny)

TLE

ŚwieżeSource: Space-Track

Epoka: Sep 14, 2026, 22:45 UTC

1 63208U 25051A   26257.94831788  .00007194  00000-0  31831-3 0  9992
2 63208  97.4455 336.3611 0001398 131.1893 228.9464 15.21974350 83491

Śledź SUPERVIEW NEO 3-02 w czasie rzeczywistym z AllMySat

Download on the App Store